This demonstration page uses our WeatherBlox Daily Observations layout. Learn more.

Left ArrowRight Arrow

39.51506, -84.39828

Hourly Observations for May 30, 2016

Temp ( °F °C ) Dew Point ( °F °C ) Humidity (%) Winds ( mph kmh ) Pressure ( in mb ) Visibility ( mi km ) Precip ( " mm )
12:15 am 00:15 Partly Cloudy 69 20.8 62 16.8 78 78 N N/A 30.00 1016 10 16 N/A
12:35 am 00:35 Partly Cloudy 69 20.8 63 17 79 79 N N/A 30.00 1016 10 16 N/A
12:55 am 00:55 Mostly Cloudy 69 20.8 62 16.9 78 78 N N/A 30.00 1016 10 16 N/A
1:15 am 01:15 Cloudy 69 20.8 63 17.2 80 80 N N/A 30.00 1016 10 16 N/A
1:35 am 01:35 Mostly Cloudy 69 20.8 63 17.3 80 80 N N/A 30.00 1016 10 16 N/A
1:55 am 01:55 Partly Cloudy 69 20.8 63 17.2 80 80 N N/A 30.00 1016 10 16 N/A
2:15 am 02:15 Partly Cloudy 67 19.5 61 16 80 80 N N/A 30.00 1016 10 16 N/A
2:35 am 02:35 Mostly Cloudy 68 19.8 62 16.5 81 81 N N/A 30.00 1016 10 16 N/A
2:55 am 02:55 Partly Cloudy 67 19.5 61 16.1 81 81 N N/A 30.00 1016 10 16 N/A
3:15 am 03:15 Mostly Cloudy 67 19.7 61 16.2 80 80 N N/A 30.00 1016 10 16 N/A
3:35 am 03:35 Mostly Cloudy 69 20.8 63 17.3 80 80 N N/A 30.00 1016 10 16 N/A
3:55 am 03:55 Mostly Cloudy 69 20.4 63 17.1 81 81 N N/A 30.00 1016 7 11 N/A
4:15 am 04:15 Partly Cloudy 67 19.5 61 16.1 81 81 N N/A 30.00 1016 7 11 N/A
4:35 am 04:35 Partly Cloudy 67 19.5 61 16.2 81 81 N N/A 30.00 1016 7 11 N/A
4:55 am 04:55 Partly Cloudy 66 19.1 61 16 82 82 N N/A 30.00 1016 7 11 N/A
5:15 am 05:15 Partly Cloudy 67 19.5 62 16.4 82 82 N N/A 30.00 1016 7 11 N/A
5:35 am 05:35 Partly Cloudy 64 18 59 15 83 83 N N/A 30.00 1016 7 11 N/A
5:55 am 05:55 Hazy 64 17.9 59 14.9 83 83 N N/A 30.03 1017 5 8 N/A
6:15 am 06:15 Hazy 63 17 57 14.1 83 83 N N/A 30.03 1017 4 6 N/A
6:35 am 06:35 Hazy 62 16.6 57 13.7 83 83 N N/A 30.03 1017 2 3 N/A
6:55 am 06:55 Mostly Cloudy with Haze 62 16.7 57 13.8 83 83 N N/A 30.03 1017 1 1 N/A
7:15 am 07:15 Hazy 62 16.8 57 14.1 84 84 N N/A 30.03 1017 2 3 N/A
7:35 am 07:35 Sunny 64 18 59 15.2 84 84 N N/A 30.03 1017 10 16 N/A
7:55 am 07:55 Sunny 69 20.8 63 17.1 79 79 N N/A 30.03 1017 10 16 N/A
8:15 am 08:15 Sunny 70 21 60 15.6 71 71 N N/A 30.03 1017 10 16 N/A
8:35 am 08:35 Sunny 74 23.6 62 16.7 65 65 N N/A 30.03 1017 10 16 N/A
8:55 am 08:55 Sunny 74 23.6 60 15.6 61 61 N N/A 30.03 1017 10 16 N/A
9:15 am 09:15 Sunny 75 24 59 14.9 57 57 N N/A 30.03 1017 10 16 N/A
9:35 am 09:35 Sunny 77 25.1 58 14.6 52 52 N N/A 30.03 1017 10 16 N/A
9:55 am 09:55 Sunny 80 26.4 58 14.7 49 49 NE 3 6 30.03 1017 10 16 N/A
10:15 am 10:15 Sunny 80 26.5 55 12.7 42 42 N 7 11 30.03 1017 10 16 N/A
10:35 am 10:35 Sunny 80 26.5 54 12.1 41 41 N 5 7 30.03 1017 10 16 N/A
10:55 am 10:55 Sunny 80 26.8 54 12.4 41 41 NNW 6 9 30.03 1017 10 16 N/A
11:15 am 11:15 Sunny 81 27.2 54 12.3 40 40 N 5 7 30.03 1017 10 16 N/A
11:35 am 11:35 Sunny 81 27.4 52 10.9 36 36 N 7 11 30.03 1017 10 16 N/A
11:55 am 11:55 Sunny 81 27.2 50 9.8 34 34 W 5 7 30.06 1018 10 16 N/A
12:15 pm 12:15 Partly Cloudy 82 28 51 10.7 34 34 NW 8 13 30.06 1018 10 16 N/A
12:35 pm 12:35 Sunny 82 28 48 8.8 30 30 N N/A 30.03 1017 10 16 N/A
12:55 pm 12:55 Partly Cloudy 83 28.1 49 9.5 31 31 N 3 6 30.03 1017 10 16 N/A
1:15 pm 13:15 Partly Cloudy 83 28.5 51 10.5 33 33 N 7 11 30.00 1016 10 16 N/A
1:35 pm 13:35 Sunny 83 28.6 47 8.3 28 28 NW 7 11 29.97 1015 10 16 N/A
1:55 pm 13:55 Partly Cloudy 84 28.7 48 8.7 29 29 N 9 15 29.97 1015 10 16 N/A
2:15 pm 14:15 Partly Cloudy 85 29.2 48 8.8 28 28 N N/A 29.97 1015 10 16 N/A
2:35 pm 14:35 Partly Cloudy 87 30.4 48 8.9 26 26 N 5 7 29.97 1015 10 16 N/A
2:55 pm 14:55 Sunny 87 30.7 47 8.1 24 24 NNW 7 11 29.97 1015 10 16 N/A
3:15 pm 15:15 Partly Cloudy 84 28.9 46 8 27 27 N 7 11 29.97 1015 10 16 N/A
3:35 pm 15:35 Partly Cloudy 87 30.7 45 7.3 23 23 N 5 7 29.97 1015 10 16 N/A
3:55 pm 15:55 Sunny 87 30.7 43 6.2 21 21 NW 7 11 29.97 1015 10 16 N/A
4:15 pm 16:15 Sunny 90 32.1 42 5.6 19 19 WNW 6 9 29.94 1014 10 16 N/A
4:35 pm 16:35 Sunny 90 32.1 44 6.5 20 20 WNW 3 6 29.94 1014 10 16 N/A
4:55 pm 16:55 Sunny 90 32.1 46 7.6 22 22 NNW 6 9 29.94 1014 10 16 N/A
5:15 pm 17:15 Sunny 90 32.1 46 7.5 22 22 NW 5 7 29.94 1014 10 16 N/A
5:35 pm 17:35 Sunny 90 32.1 44 6.8 21 21 N N/A 29.94 1014 10 16 N/A
5:55 pm 17:55 Sunny 90 32.1 48 8.8 24 24 WNW 5 7 29.94 1014 10 16 N/A
6:15 pm 18:15 Sunny 87 30.7 42 5.4 20 20 N N/A 29.91 1013 10 16 N/A
6:35 pm 18:35 Sunny 88 31 42 5.5 20 20 N N/A 29.91 1013 10 16 N/A
6:55 pm 18:55 Sunny 87 30.7 47 8.3 25 25 N N/A 29.91 1013 10 16 N/A
7:15 pm 19:15 Sunny 84 28.7 49 9.6 30 30 W 3 6 29.91 1013 10 16 N/A
7:35 pm 19:35 Sunny 85 29.2 49 9.3 29 29 N N/A 29.91 1013 10 16 N/A
7:55 pm 19:55 Sunny 82 28 56 13.4 41 41 N N/A 29.91 1013 10 16 N/A
8:15 pm 20:15 Sunny 77 25.1 57 14.1 51 51 N N/A 29.94 1014 10 16 N/A
8:35 pm 20:35 Sunny 77 24.9 62 16.9 61 61 N N/A 29.94 1014 10 16 N/A
8:55 pm 20:55 Sunny 74 23.6 63 17.1 67 67 N N/A 29.94 1014 10 16 N/A
9:15 pm 21:15 Clear 74 23.6 62 16.9 66 66 N N/A 29.94 1014 10 16 N/A
9:35 pm 21:35 Clear 70 21.3 60 15.5 70 70 N N/A 29.94 1014 10 16 N/A
9:55 pm 21:55 Clear 69 20.8 58 14.6 68 68 N N/A 29.97 1015 10 16 N/A
10:15 pm 22:15 Clear 69 20.8 60 15.5 72 72 N N/A 29.97 1015 10 16 N/A
10:35 pm 22:35 Clear 69 20.8 58 14.6 68 68 N N/A 29.97 1015 10 16 N/A
10:55 pm 22:55 Clear 69 20.8 61 16 74 74 N N/A 29.97 1015 10 16 N/A
11:15 pm 23:15 Clear 69 20.8 60 15.7 73 73 N N/A 29.97 1015 10 16 N/A
11:35 pm 23:35 Clear 66 19.1 58 14.6 75 75 N N/A 29.97 1015 10 16 N/A
11:55 pm 23:55 Clear 64 18 57 13.7 76 76 N N/A 29.97 1015 10 16 N/A

Powered by AerisWeather